Sponsored Ads

Nolan Ryan

1971 Topps

Lynn Nolan Ryan (January 31, 1947-) tops a handful of major pitching categories like strikeouts (5,714), walks (2,795) and most notably no-hitters with seven, including two in 1973. Shockingly, The Ryan Express never pitched a perfect game, nor did he win the Cy Young Award. The ultimate power pitcher, Ryan’s deadly fastball were often clocked at over 100 mph. even into his 40s. Nolan pitched 27 years in the big league for the Mets (1966, 1968-1971), the Angels (197201979), the Astros (1980-1988) and the Rangers (1989-1993) where he threw no-hitters in back-to-back seasons in 1990 and 1991 at age 43 and 44, respectively. Arguably the most dominant hurler of his era in either league, Ryan led the league in strikeouts 11 times and strikeouts per 9 innings 12 times at an impressive 9.5 average. Ryan was an eight-time All-Star selection, was a member of the 1969 World Series champion New York Mets and is the only player, other than Jackie Robinson, to have his number retired by three different teams (Angels, Astros, Rangers). Nolan Ryan retired posting a record of 324-292 with 5,714 strikeouts and a career 3.19 earned run average. Lynn Nolan Ryan was elected to the National Baseball Hall of Fame in 1999.

Condition Census

Pos Grade Thumbnail Pedigree and History
1 MINT 9 (31)

Prices By Grade

1971 TOPPS 513 NOLAN RYAN

Grade Most Recent Price Average Price SMR Price Population POP Higher
GEM - MT 10
MINT 9 $12,750.00 $11,667.75 $6,500.00 31
NM - MT 8 $1,000.00 $887.16 $425.00 578 69
NM 7 $299.00 $271.05 $150.00 1191 822
EX - MT 6 $189.50 $121.58 $60.00 1123 2164
EX 5 $84.00 $92.46 702 3353
VG - EX 4 $40.00 $51.59 433 4125
VG 3 $45.00 $45.20 110 4588
GOOD 2 $31.00 $31.50 25 4707
FR 1.5 3 4735
PR 1 $26.96 7 4738
Auth $35.00 $33.00 54 4749

Auction Prices Realized

Date Price Grade Lot # Auction House Auction/Seller Type Cert
01/18/2021 $190 6 224314479017 eBay lookingfor84 Auction 44104739
01/14/2021 $128 6 143907344947 eBay pwcc_auctions Auction 47413519
01/14/2021 $84 5 143907344942 eBay pwcc_auctions Auction 47413518
01/13/2021 $95 5 363247204217 eBay probstein123 Auction 23208487
01/10/2021 $1,000 8 124517390926 eBay johndb63 Best Offer 28137144
01/09/2021 $70 5 233828265921 eBay kdm9897 Best Offer 28496826
01/08/2021 $97 5 373414263729 eBay jkjm-85 Auction 19577399
01/06/2021 $12,750 9 353307482484 eBay trading_card_exchange Best Offer 06144078
12/25/2020 $100 6 383874526217 eBay bayr68 Best Offer 40813094
12/22/2020 $95 5 154249085323 eBay jazz57sam Best Offer 48411606
12/22/2020 $128 6 383858122135 eBay probstein123 Auction 24726476
12/21/2020 $1,066 8 174559301227 eBay greg_laflam Auction 02074184
12/20/2020 $180 7 (OC) 174261980745 eBay baseballguru2323 Best Offer 43895858
12/20/2020 $95 5 143874145173 eBay pottsy0761 Best Offer 90473012
12/18/2020 $299 7 373395405572 eBay dacardworld Best Offer 41283585
12/15/2020 $319 7 143871413885 eBay pwcc_auctions Auction 03765142
12/12/2020 $112 6 284105201292 eBay gech77 Auction 16395027
12/10/2020 $275 7 373379252334 eBay jik444 Auction 16015794
12/05/2020 $260 7 193778152407 eBay perjo.us.gtlxqt Auction 04379262
12/02/2020 $112 5 203202460232 eBay favoritewaltzwaltz1 Best Offer 47184425
11/30/2020 $1,009 8 353284855505 eBay pwcc_auctions Auction 47966744
11/25/2020 $112 6 193755138355 eBay starxcards Auction 46165176
11/22/2020 $275 7 124450322770 eBay jmcclain1207 Auction 08129832
11/21/2020 $100 5 114478064546 eBay cardmarketempire1 Best Offer 48978929
11/17/2020 $999 8 284055154878 eBay slim152 Best Offer 31188104
11/13/2020 $67 5 184523186348 eBay copejeter Auction 45199764
11/13/2020 $31 2 143819878802 eBay pwcc_auctions Auction 43440004
11/13/2020 $32 2 402529336883 eBay pwcc_auctions Auction 43440003
11/01/2020 $118 6 284057176760 eBay nccowboy379 Auction 15737385
10/30/2020 $45 3 324345267761 eBay deckardn Auction 46069489
10/29/2020 $280 7 143794231669 eBay pwcc_auctions Auction 11494786
10/27/2020 $785 8 383767869200 eBay probstein123 Auction 08152572
10/26/2020 $225 7 154160325693 eBay rhettbarth Auction 14063133
10/26/2020 $275 7 363147683673 eBay probstein123 Auction 46816269
10/26/2020 $218 7 154149248014 eBay buffalonian123 Auction 28158164
10/24/2020 $85 5 154148509793 eBay ric725 Best Offer 42291626
10/23/2020 $3,200 8.5 383766396659 eBay probstein123 Auction 42936050
10/21/2020 $89 5 333751159453 eBay selut-14 Auction 27016755
10/21/2020 $268 7 274529666304 eBay avmitejeri Auction 27687394
10/20/2020 $40 4 114471922081 eBay dgatlin55 Auction 47678961
10/18/2020 $126 6 274530060471 eBay firemuzzle Auction 47677633
10/16/2020 $60 4 114465167325 eBay dgatlin55 Auction 47678963
10/15/2020 $915 8 402475270866 eBay pwcc_auctions Auction 04020647
10/13/2020 $141 6 353225768105 eBay tbh39 Best Offer 47076906
10/05/2020 $210 7 264879646122 eBay waterman26861 Auction 23042717
10/03/2020 $70 3 143729323954 eBay stloubrown Best Offer 45762524
10/02/2020 $57 5 313241142121 eBay midesp-24 Best Offer 17212238
10/01/2020 $39 4.5 383735881011 eBay probstein123 Auction 24439976
09/22/2020 $96 6 363106387861 eBay probstein123 Auction 30333106
09/22/2020 $49 4 373204402625 eBay probstein123 Auction 48557492
09/17/2020 $64 5 363101018802 eBay kenmorecollectibles Auction 46117819
09/16/2020 $88 6 363099624004 eBay probstein123 Auction 48557491
09/12/2020 $134 6 303676178092 eBay bburkh1 Auction 07312664
09/09/2020 $9,250 9 373184863545 eBay probstein123 Auction 06144078
09/08/2020 $800 8 293716302028 eBay xander5165 Auction 30019217
09/07/2020 $21 3 324278596860 eBay deckardn Auction 46069487
09/07/2020 $266 7 324275579297 eBay dlcubs_123 Auction 18509939
09/06/2020 $154 6 324275157196 eBay martinous Auction 47816885
09/04/2020 $46 4 114380659816 eBay dgatlin55 Auction 42405226
09/04/2020 $11,500 9 254172688192 eBay sports-cards-forever Best Offer 21473504
09/03/2020 $60 3.5 363082968186 eBay devil_mountain_9 Best Offer 45016553
09/02/2020 $310 7 324257620905 eBay iowahawkifan16 Best Offer 60072992
09/02/2020 $41 4.5 373168026888 eBay probstein123 Auction 24439974
08/31/2020 $350 7 333698117528 eBay mattyb5000 Auction 45735697
08/30/2020 $238 7 143695584654 eBay donnie_baseball Auction 16214645
08/28/2020 $630 8 56179 Heritage Auctions Summer Sports Card Catalog Auction - Dallas Auction 05383903
08/27/2020 $909 8 114365993825 eBay griffmobbin009 Auction 02080187
08/24/2020 $144 6.5 353172829638 eBay cobb Auction 14916553
08/22/2020 $275 7 402357662557 eBay champsandbums Best Offer 31337189
08/20/2020 $758 8 383674395016 eBay probstein123 Auction 90458140
08/19/2020 $255 7 274313959895 eBay mrgus_z8ipt0 Best Offer 41117019
08/19/2020 $265 7 203067496607 eBay kurtzkardz Best Offer 46376376
08/17/2020 $3,328 8.5 353162683773 eBay pwcc_auctions Auction 27629361
08/17/2020 $762 8 143675581310 eBay pwcc_auctions Auction 22985481
08/17/2020 $118 6 402352633785 eBay pwcc_auctions Auction 43441753
08/17/2020 $60 4 353162683770 eBay pwcc_auctions Auction 43096208
08/14/2020 $53 4 363069197162 eBay probstein123 Auction 45478525
08/13/2020 $25 3.5 283970671456 eBay trepidation34 Auction 42752089
08/09/2020 $750 8 124287364407 eBay johndb63 Best Offer 28137144
08/07/2020 $100 6 254679212863 eBay ct94122 Best Offer 40698264
08/07/2020 $100 6 756 Collect Auctions August 6, 2020: Sports & Americana Auction Auction 47076906
08/06/2020 $53 3 254610298233 eBay kalamatageo_7 Best Offer 42227925
08/06/2020 $484 8 193 Collect Auctions November 14, 2019: Sports & Americana Auction Auction 45072393
08/06/2020 $216 7 212 Collect Auctions July 18, 2019: Sports & Americana Auction Auction 43518635
08/06/2020 $222 7 519 Collect Auctions March 19, 2020: Sports & Americana Auction Auction 45072394
08/03/2020 $90 5 233667104515 eBay enssportscards5 Buy It Now 27600614
08/03/2020 $91 6 283960088775 eBay shoe_fits123 Auction 27785202
07/29/2020 $95 5 193518431981 eBay fitzgchr-0157 Buy It Now 41535227
07/29/2020 $67 5 (MC) 143660309898 eBay pwcc_auctions Auction 27746066
07/27/2020 $75 4 154022147707 eBay ewkact Best Offer 43118915
07/25/2020 $90 5 373111359856 eBay juswill7669 Best Offer 46374615
07/22/2020 $105 6 363045729401 eBay probstein123 Auction 46168867
07/21/2020 $305 7 303628837892 eBay shore_sportscards Buy It Now 45182012
07/19/2020 $93 7 (OC) 264794283070 eBay roarebal0 Auction 11222390
07/18/2020 $218 8 (OC) 193566547925 eBay jeremyb330 Auction 09014634
07/18/2020 $265 7 224080961859 eBay spawnallica Best Offer 60066089
07/17/2020 $13,171 9 353131200489 eBay pwcc_auctions Auction 25494333
07/17/2020 $715 8 353131200406 eBay pwcc_auctions Auction 08057101
07/17/2020 $236 7 402317965765 eBay pwcc_auctions Auction 02400495
07/17/2020 $121 6 353131200402 eBay pwcc_auctions Auction 42077255
07/17/2020 $701 8 184355311866 eBay sportsfanatic1972 Auction 01338524
07/16/2020 $104 6 154000107688 eBay redfhthm Auction 43939051
07/12/2020 $46 5 (MC) 133457728809 eBay thedeepsouth Auction 46172047
07/11/2020 $60 3.5 133423508090 eBay nocanlose Best Offer 46627793
07/07/2020 $109 6 254637134790 eBay drbigpapaman Auction 09201113
07/04/2020 $291 7 254631801851 eBay josephpingree Buy It Now 45400793
07/02/2020 $85 5 224064932732 eBay golden-loupe Best Offer 44528432
06/30/2020 $115 6 233585017379 eBay kathuffma-0 Buy It Now 24988141
06/28/2020 $105 6 274403691115 eBay mzvhxj Auction 47087116
06/25/2020 $35 Auth 401735561902 eBay caughtlooking2000 Best Offer 25839304
06/23/2020 $66 5 363022687032 eBay probstein123 Auction 27736462
06/22/2020 $139 6 324189420899 eBay baseballfan10 Best Offer 44237809
06/22/2020 $80 4 132824597974 eBay ultimate-sports-man-cave Buy It Now 26803008
06/20/2020 $85 5 193525246801 eBay jjpete Buy It Now 40300054
06/19/2020 $93 6 174314302726 eBay bennyhillblues Auction 42946236
06/18/2020 $106 6 363017649355 eBay probstein123 Auction 25312779
06/17/2020 $95 6 333627346039 eBay mcgurgd Buy It Now 42620411
06/17/2020 $50 3.5 274397568752 eBay willi7614 Best Offer 26758660
06/17/2020 $2,122 8.5 143625002584 eBay pwcc_auctions Auction 23027601
06/17/2020 $337 7.5 402287225956 eBay pwcc_auctions Auction 21466936
06/17/2020 $75 5 254627139378 eBay cardpickers Best Offer 26459314
06/15/2020 $125 6 254623854788 eBay cardpickers Best Offer 40813094
06/15/2020 $123 6 164239147669 eBay sculpt101 Auction 44304600
06/14/2020 $31 Auth 303568008357 eBay jhustle1 Auction 25189896
06/13/2020 $935 8 324187393345 eBay pluto926 Auction 06480118
06/12/2020 $50 4 372859967509 eBay tssc1 Best Offer 40721478
06/12/2020 $109 6 164235470957 eBay hbomb2332 Buy It Now 44074335
06/11/2020 $90 6 233609794975 eBay srwidrig Buy It Now 40838703
06/09/2020 $95 6 193504450121 eBay rodneyronk07 Buy It Now 27257240
06/09/2020 $285 7 373067977013 eBay probstein123 Auction 27441921
06/08/2020 $36 3 223912143340 eBay yesterdayskards Buy It Now 43389149
06/06/2020 $130 6 224022086455 eBay tcvintagesportscards Best Offer 41650118
06/05/2020 $82 6 153946869394 eBay kcfutures9 Auction 09171847
06/04/2020 $50 4 383441828399 eBay amerlegends Best Offer 45134323
06/03/2020 $53 4 143460032253 eBay konksplatt Best Offer 25013630
06/02/2020 $110 6 254614587854 eBay quietcornertrading Buy It Now 44237809
05/30/2020 $100 5.5 202999665478 eBay marhade-3 Buy It Now 42706101
05/29/2020 $71 5 233595448387 eBay gotbaseballcards Auction 45825642
05/29/2020 $285 7 143609118184 eBay pwcc_auctions Auction 42513012
05/25/2020 $92 6 114235533296 eBay garbschopshop Buy It Now 44564900
05/25/2020 $40 4 324169606017 eBay deckardn Auction 45293262
05/24/2020 $260 7 202943884729 eBay consignmints Best Offer 40286685
05/23/2020 $150 6 174291330086 eBay ricey111dog Buy It Now 45359481
05/22/2020 $206 6 373052900717 eBay probstein123 Auction 45867975
05/20/2020 $695 8 124192913413 eBay dtr1 Auction 43881325
05/20/2020 $94 6 143600771708 eBay us-zubri Auction 24021434
05/19/2020 $47 3 254046080618 eBay kalamatageo_7 Buy It Now 42227925
05/17/2020 $45 4 223994804453 eBay bigmac1960 Best Offer 44951449
05/15/2020 $642 8 373044850996 eBay probstein123 Auction 12517117
05/15/2020 $355 7 143596458942 eBay pwcc_auctions Auction 45400793
05/15/2020 $113 6 402252698714 eBay pwcc_auctions Auction 17842591
05/15/2020 $81 5 143596458938 eBay pwcc_auctions Auction 45199764
05/14/2020 $190 8 (OC) 352905487461 eBay hamj23_4 Buy It Now 09048611
05/12/2020 $50 5 114215179287 eBay rookiesrme Auction 41913279
05/11/2020 $6,000 9 56242 Heritage Auctions 2020 May 7 - 9 Spring Sports Collectibles Catalog Auction Auction 04014257
05/10/2020 $100 6 353070992816 eBay chuckw99 Buy It Now 46165176
05/07/2020 $120 6 362613455347 eBay superiorsportsinvestments Best Offer 42992111
05/07/2020 $629 8 193450360050 eBay prestonwms34 Best Offer 06043421
05/05/2020 $54 Auth 383472120077 eBay cleansweepauctions Best Offer 45591335
05/04/2020 $50 4 383324380677 eBay amerlegends Best Offer 43318640
05/02/2020 $247 7 323864466578 eBay yesterdayskards Buy It Now 06025056
05/02/2020 $16 2 (MK) 114196243215 eBay 39mcintyre Auction 44629842
04/30/2020 $50 4 223912141475 eBay yesterdayskards Buy It Now 43389150
04/30/2020 $50 3 362803724757 eBay cardboardlegendsonline Buy It Now 43915174
04/29/2020 $55 5 114204501336 eBay jeff1970red Buy It Now 25554902
04/29/2020 $50 4 324050729854 eBay iowahawkifan16 Buy It Now 44420178
04/27/2020 $128 6 353060123318 eBay tbh39 Buy It Now 45266885
04/26/2020 $41 3 143092129026 eBay konksplatt Best Offer 25013639
04/26/2020 $675 8 143575855352 eBay brentstoysonline Buy It Now 90458140
04/25/2020 $109 6 114198177423 eBay smearm3 Buy It Now 44445504
04/24/2020 $108 6 184256273741 eBay doub1ep1ay62524 Auction 42100554
04/23/2020 $120 6 233567741235 eBay hundley Buy It Now 44445504
04/22/2020 $47 4 274291388420 eBay moose99 Buy It Now 44216073
04/21/2020 $138 6.5 264699309476 eBay planoshirts4 Auction 42005366
04/18/2020 $110 6 303527932848 eBay viaa-mail Best Offer 44445504
04/17/2020 $105 6 233559698888 eBay onelowwss Best Offer 42581043
04/12/2020 $50 4 163863949781 eBay nicmoskow Buy It Now 42552790
04/07/2020 $99 5 143569229355 eBay konksplatt Best Offer 25013652
04/07/2020 $16 4 274291390316 eBay moose99 Buy It Now 44216073
04/06/2020 $688 8 373003463617 eBay probstein123 Auction 45182010
04/05/2020 $117 6 174203492562 eBay baseballguru2323 Buy It Now 24588532
04/04/2020 $250 7 124138377590 eBay makincans579 Best Offer 28722898
04/03/2020 $110 6 324110901188 eBay mailmanfan Best Offer 44697375
04/03/2020 $99 6 264683301346 eBay patsne59 Best Offer 16057998
04/03/2020 $240 7 392567404981 eBay surfcitycards Buy It Now 44958783
03/27/2020 $86 5 124087832510 eBay konksplatt Buy It Now 25013654
03/22/2020 $207 7 153860980109 eBay mame-95 Auction 43133108
03/17/2020 $154 7 174216502591 eBay yastrzemskisports Auction 45198947
03/17/2020 $152 7 124113241963 eBay hanscurthhans Auction 17682233
03/16/2020 $264 7 143548910470 eBay pwcc_auctions Auction 27565832
03/15/2020 $156 7 164116051228 eBay mojodaddy17 Auction 03765142
03/08/2020 $50 5 114136202997 eBay sly235 Auction 25522534
03/01/2020 $198 7 333525137292 eBay just_collect Auction 15780298
02/25/2020 $300 7.5 383427161008 eBay probstein123 Auction 45585674
02/23/2020 $25 3.5 153829262561 eBay nnuckols181 Best Offer 25147276
02/21/2020 $71 6 264634298987 eBay kagenterprises1818 Auction 45359481
02/18/2020 $178 7 362912047734 eBay probstein123 Auction 45643046
02/16/2020 $104 6 402073672645 eBay pwcc_auctions Auction 44445504
02/16/2020 $164 7 274253107368 eBay scpandahead Auction 16060350
02/16/2020 $79 5 143373277501 eBay konksplatt Buy It Now 25013632
02/13/2020 $188 7 283776111348 eBay daughters9664 Auction 42463056
02/11/2020 $203 Auth 383406325074 eBay probstein123 Auction 44029303
02/08/2020 $100 6 114019910059 eBay amerlegends Buy It Now 43318641
02/04/2020 $75 6 153813754690 eBay exmintplus Auction 15374080
02/04/2020 $34 4.5 402056510636 eBay penny2204 Auction 44772263
02/02/2020 $74 8 (OC) 362897361656 eBay houseofcardsmd Auction 11586730
01/28/2020 $71 6 383382406357 eBay probstein123 Auction 44320347
01/26/2020 $75 6 164039666131 eBay sportsgraffs Auction 40422750
01/26/2020 $89 6 164031899719 eBay sweetz0769 Buy It Now 44829452
01/26/2020 $31 4 303420115814 eBay jhustle1 Auction 23072012
01/22/2020 $80 6 153792015271 eBay peekenterprises Buy It Now 44817496
01/19/2020 $84 6 352927206275 eBay pwcc_auctions Auction 03375971
01/09/2020 $34 4 333461684673 eBay aiu572012 Auction 44883153
01/07/2020 $75 6 383348661255 eBay onehighroller Auction 90660974
12/28/2019 $43 Auth 293380359470 eBay scoop9baseball Buy It Now 44952125
12/18/2019 $28 4 1072 Sirius Sports Auctions Sirius Sports Cards Auction # 252 - Ends 12/12/19 Auction 44951449
12/17/2019 $42 5 372867721220 eBay full_count_3-2 Auction 45096207
12/15/2019 $43 5 184077701163 eBay elitecards Auction 44979887
12/14/2019 $45 5 233424048039 eBay gotbaseballcards Auction 44067324
12/12/2019 $73 6 362840390084 eBay probstein123 Auction 45039811
12/10/2019 $40 5 352873496961 eBay pwcc_auctions Auction 22887403
12/09/2019 $6,300 9 51275 Heritage Auctions 2019 December 5 - 7 Fall Sports Card Catalog Auction Auction 06144078
12/08/2019 $26 3 362835245128 eBay houseofcardsmd Auction 26647865
12/06/2019 $50 4 163823245074 eBay nicmoskow Best Offer 42552795
12/02/2019 $37 5 362827348296 eBay krukcards Auction 15315640
12/02/2019 $50 4 143103220339 eBay konksplatt Buy It Now 25013649
11/28/2019 $74 6 401967184096 eBay stevesann-1 Auction 43530738
11/26/2019 $450 8 (OC) 352667130272 eBay hamj23_4 Best Offer 09048611
11/17/2019 $43 4.5 143432550934 eBay zete Buy It Now 44237810
11/12/2019 $451 8 174088465833 eBay oscarlove Auction 08152572
11/10/2019 $60 6 303347745685 eBay depdawgg1497 Auction 31113513
11/05/2019 $195 8 (OC) 293247058991 eBay harley-truck Best Offer 06023172
11/04/2019 $30 2 143092123338 eBay konksplatt Buy It Now 25013637
11/02/2019 $202 7 133213910313 eBay gregmorriscards Auction 43411468
11/02/2019 $76 6 312815818653 eBay gregmorriscards Auction 43824369
11/02/2019 $57 5 133213908481 eBay gregmorriscards Auction 43411467
11/02/2019 $50 5 123953456344 eBay royboy-93010 Auction 43971460
10/28/2019 $481 8 174072819175 eBay oscarlove Auction 08152572
10/27/2019 $86 6 312808323471 eBay gregmorriscards Auction 41747719
10/22/2019 $14 4 (MC) 274049881674 eBay domanator Auction 42535527
10/20/2019 $61 6 293280865551 eBay jcrd_79 Auction 43418387
10/20/2019 $74 6.5 202799064608 eBay cic-lmparts Auction 42692892
10/20/2019 $50 7 (OC) 202799063534 eBay cic-lmparts Auction 42692893
10/18/2019 $250 7 401735740768 eBay ultimate-cards Best Offer 22585215
10/16/2019 $229 7 401913125356 eBay pwcc_auctions Auction 43186100
10/16/2019 $81 6 233361895806 eBay bucks1996 Auction 26612738
10/02/2019 $50 5 133185390737 eBay tripleplayvintagestore Auction 43961942
10/02/2019 $47 5 283624931728 eBay jtda_123 Auction 25799830
09/30/2019 $40 5 383174512818 eBay kencope Auction 43330059
09/16/2019 $463 8 352780943915 eBay pwcc_auctions Auction 01338524
09/16/2019 $220 7 401875212710 eBay pwcc_auctions Auction 43518635
09/12/2019 $59 6 293211748485 eBay paulmarci10 Auction 05481985
09/06/2019 $125 6.5 372633486433 eBay caughtlooking2000 Buy It Now 19978806
09/04/2019 $70 5 392378743814 eBay nicmoskow Best Offer 42552792
08/31/2019 $171 7 163832895556 eBay liveontape Auction 41508047
08/29/2019 $27 1 143158835689 eBay konksplatt Buy It Now 25013641
08/28/2019 $80 6 333308979679 eBay sgthappypants Auction 40717546
08/27/2019 $18 2 392393792278 eBay tymorr-78 Auction 04232766
08/21/2019 $30 3 163814216602 eBay nicmoskow Best Offer 42552791
08/18/2019 $466 8 312729528928 eBay waxpackcity Auction 14873861
08/18/2019 $169 7 223619824249 eBay devarmy225 Auction 42513012
08/14/2019 $799 8 143347166799 eBay pwcc_auctions Auction 24932326
08/14/2019 $131 6.5 352743810475 eBay pwcc_auctions Auction 42005366
08/13/2019 $18 4 (MC) 312720660000 eBay discountjewelrycenter Auction 43864682
08/12/2019 $199 7 372731852557 eBay probstein123 Auction 08213363
08/11/2019 $52 5 312723158682 eBay gregmorriscards Auction 42640053
08/11/2019 $184 7 113838036556 eBay evansarchive Auction 43523339
08/11/2019 $19 5 (MC) 133134089649 eBay spopetehort Auction 30774578
08/02/2019 $44 4 323863119581 eBay yesterdayskards Best Offer 42486169
08/01/2019 $50 4 143289493848 eBay amerlegends Buy It Now 43236641
07/31/2019 $478 8 273943302172 eBay waxpackcity Auction 14873861
07/31/2019 $75 6 143335097257 eBay pwcc_auctions Auction 19837124
07/24/2019 $1,108 8.5 333270145652 eBay k.k3367 Auction 17392281
07/22/2019 $480 8 81287 Heritage Auctions 2019 July 18 - 20 Summer Sports Card Catalog Auction Auction 02311539
07/20/2019 $70 5 372707688995 eBay raffieleo Buy It Now 26498800
07/18/2019 $185 7 352713252549 eBay pwcc_auctions Auction 08152175
07/18/2019 $59 6 401809382673 eBay pwcc_auctions Auction 28927855
07/18/2019 $47 5 143323727230 eBay pwcc_auctions Auction 41547604
07/18/2019 $31 4 401809382404 eBay pwcc_auctions Auction 42280935
07/17/2019 $48 4 323803572284 eBay kemdawg Buy It Now 42690344
07/15/2019 $175 7 362695975055 eBay probstein123 Auction 43133108
07/15/2019 $52 5 323853926327 eBay deelystanbu92 Auction 42640053
07/12/2019 $66 6 293143141741 eBay justinboettche_0 Auction 26933235
07/12/2019 $56 5 173955363857 eBay nyy2009champs Auction 42615182
07/08/2019 $73 6 1064 Sirius Sports Auctions Sirius Sports Cards Auction # 241 - Ends 7/5/19 Auction 42949267
07/07/2019 $60 5.5 254281558229 eBay skeeta2283 Auction 42547241
07/06/2019 $75 6 303206445137 eBay corey_2008 Auction 25570511
07/03/2019 $279 6 183862227237 eBay stockbuyback Auction 19652995
07/02/2019 $9 5 (MC) 362686826910 eBay probstein123 Auction 30774578
06/30/2019 $61 5 323838519538 eBay deelystanbu92 Auction 42640053
06/27/2019 $69 5 372693491082 eBay probstein123 Auction 42333832
06/27/2019 $75 2 401715673175 eBay joedel Best Offer 41744788
06/23/2019 $33 5 293123174670 eBay southpaws25 Auction 40437364
06/16/2019 $504 8 192945339411 eBay jrowejr25 Auction 27413832
06/16/2019 $887 8 143284649552 eBay pwcc_auctions Auction 24932326
06/16/2019 $51 7 (OC) 113777609850 eBay littletweed Auction 42426335
06/16/2019 $480 8 372686833507 eBay surftrainnut Auction 11232631
06/14/2019 $50 5 401734599651 eBay caughtlooking2000 Buy It Now 24846154
06/14/2019 $50 5 372633393516 eBay caughtlooking2000 Buy It Now 24846150
06/13/2019 $191 7 382992287468 eBay probstein123 Auction 25776464
06/13/2019 $60 5 333232875313 eBay jenningsfamilybusiness Auction 43035181
06/11/2019 $43 5 273876372562 eBay vanderwt Auction 24021269
06/09/2019 $42 5 183834097524 eBay kehan52 Auction 03572409
06/06/2019 $182 7 362665332157 eBay probstein123 Auction 43115558
06/03/2019 $70 6 133068180103 eBay tripleplayvintagestore Auction 41632719
05/30/2019 $50 5 143254947608 eBay isoldit.il0219 Buy It Now 43045534
05/28/2019 $30 4 153497559933 eBay sescrack Auction 42528528
05/27/2019 $78 6 202684739589 eBay breakers.rowe Auction 21649492
05/27/2019 $25 4 183818976336 eBay kehan52 Auction 40110888
05/22/2019 $200 7 362644927047 eBay tbh39 Best Offer 03628600
05/21/2019 $76 6 293092430535 eBay jcrd_79 Auction 42884349
05/21/2019 $37 5 382947657665 eBay peal7878 Auction 43287702
05/18/2019 $35 4 283481779914 eBay jerseysandthings Auction 26097090
05/14/2019 $177 7 401761028724 eBay pwcc_auctions Auction 01050243
05/14/2019 $71 6 401761028723 eBay pwcc_auctions Auction 42620411
05/14/2019 $40 5 143238499303 eBay pwcc_auctions Auction 42098134
05/06/2019 $173 7 223495812391 eBay titletown-cardshop Auction 03610220
05/05/2019 $506 8 382919596373 eBay probstein123 Auction 40966805
05/05/2019 $78 8 (OC) 163668485608 eBay toppsarus Auction 07195234
05/03/2019 $30 Auth 123596554983 eBay konksplatt Buy It Now 25013646
04/29/2019 $576 8 484 Goodwin and Co. Auctions Masterpieces and Uncommon Commons 78 Auction 27413832
04/25/2019 $60 6 133026975766 eBay stingray87 Auction 10533649
04/25/2019 $146 7 1266 Sirius Sports Auctions Sirius Sports Cards Auction # 236 - Ends 4/25/19 Auction 42533696
04/24/2019 $200 7 202652920991 eBay vintagediscovered Buy It Now 41278967
04/24/2019 $133 7 43112 Heritage Auctions Sunday Internet Sports Collectibles Auction Auction 14452075
04/21/2019 $45 5 183774787898 eBay laur_demch Auction 25330795
04/18/2019 $42 5 143212710640 eBay handwovenluxury Auction 27145847
04/17/2019 $69 6 372649717414 eBay probstein123 Auction 42884349
04/14/2019 $8,105 9 352634996949 eBay pwcc_auctions Auction 90129833
04/14/2019 $809 8 352634996947 eBay pwcc_auctions Auction 40966805
04/14/2019 $36 4 401743459230 eBay pwcc_auctions Auction 41222263
04/13/2019 $71 6 382880780389 eBay probstein123 Auction 41747719
04/12/2019 $42 4 264260975223 eBay kityoungcards Buy It Now 26730697
04/08/2019 $63 6 264265413161 eBay bigkatkunai Auction 81532975
04/04/2019 $61 6 362599082065 eBay probstein123 Auction 23396536
03/31/2019 $569 8 143181670060 eBay pwcc_auctions Auction 18465732
03/31/2019 $171 7 143181670052 eBay pwcc_auctions Auction 41283585
03/31/2019 $64 5 192869133782 eBay starxcards Auction 42715021
03/26/2019 $74 8 (OC) 273769373054 eBay trepidation34 Auction 02147568
03/23/2019 $150 7 132968221758 eBay tooly22 Best Offer 08025798
03/20/2019 $51 5 223447308580 eBay nowbatting19 Auction 31148868
03/20/2019 $66 6 303097682116 eBay fredlys-0 Auction 21201797
03/19/2019 $52 6 254169348124 eBay samuephipp_7 Auction 27118493
03/19/2019 $48 5 323724347034 eBay brentski86 Best Offer 26091473
03/18/2019 $48 5 372624632005 eBay probstein123 Auction 25639741
03/18/2019 $30 3 233166292888 eBay msdowe Auction 41666532
03/17/2019 $156 7 352611910697 eBay pwcc_auctions Auction 20550808
03/17/2019 $494 8 352611910699 eBay pwcc_auctions Auction 21719086
03/17/2019 $349 7 143162975806 eBay pwcc_auctions Auction 42951062
03/17/2019 $70 6 352611910695 eBay pwcc_auctions Auction 42077255
03/12/2019 $46 5 143160248487 eBay jimk41853 Auction 41067482
03/07/2019 $501 8 372614749825 eBay probstein123 Auction 19345514
03/05/2019 $46 5 163562247257 eBay sweetz0769 Auction 41624891
03/05/2019 $265 7.5 233144291219 eBay bwells79 Best Offer 14896558
03/04/2019 $103 6 153401642708 eBay srhicks3 Auction 40020276
02/20/2019 $37 7 143130455863 eBay pbh722-1 Auction 06550156
02/18/2019 $42 5 372597675516 eBay jclemmons Auction 15101865
02/17/2019 $700 8 143121980488 eBay pwcc_auctions Auction 40392677
02/17/2019 $123 6.5 352588849819 eBay pwcc_auctions Auction 42005366
02/17/2019 $66 6 352588849547 eBay pwcc_auctions Auction 19837124
02/15/2019 $30 6 372599294944 eBay hsmhfs-uxg0994n Auction 19837124
02/14/2019 $1,600 8.5 382773988263 eBay probstein123 Auction 24862973
02/14/2019 $178 7 884 Sirius Sports Auctions Sirius Sports Cards Auction # 231 - Ends 2/14/19 Auction 42951062
02/10/2019 $1,526 8.5 223355223600 eBay mllrcp Auction 41464543
02/10/2019 $59 6 312458941104 eBay toppsarus Auction 28682973
02/10/2019 $35 4 283364977210 eBay edukated9 Auction 25273458
02/06/2019 $7,750 9 254108770795 eBay blew.horseshew Best Offer 01103042
02/04/2019 $49 5 382754357911 eBay probstein123 Auction 25639741
01/30/2019 $544 8 401690772616 eBay pwcc_auctions Auction 01338524
01/30/2019 $71 5 401690772614 eBay pwcc_auctions Auction 41443602
01/30/2019 $69 6 123614556777 eBay suncitysportstrading Buy It Now 42376239
01/30/2019 $70 6 163501660284 eBay td1996gator Auction 31652768
01/29/2019 $225 7 382745435789 eBay probstein123 Auction 41602170
01/23/2019 $151 7 202565518313 eBay gunther713 Auction 31041098
01/22/2019 $167 7 372568777286 eBay probstein123 Auction 04052882
01/18/2019 $27 1 143092119406 eBay konksplatt Buy It Now 25013651
01/16/2019 $668 8 143082320659 eBay pwcc_auctions Auction 22985482
01/16/2019 $41 5 352562154794 eBay pwcc_auctions Auction 42074839
01/16/2019 $41 5 143082320646 eBay pwcc_auctions Auction 41856552
01/13/2019 $40 5 223314025197 eBay lally1_stma Auction 41913279
01/12/2019 $51 6 233082437051 eBay 928s-4 Auction 20747698
01/08/2019 $37 6 (MC) 263520670531 eBay baseballnut44 Best Offer 16881150
01/07/2019 $39 4.5 263763409875 eBay dennisritchie2011 Buy It Now 22497716
01/04/2019 $20 3 132899300843 eBay gregmorriscards Auction 23258760
01/02/2019 $22 3 382695797142 eBay probstein123 Auction 42129124
01/02/2019 $52 6 352543206767 eBay ultimatepastime Best Offer 18689666
12/29/2018 $51 5 362515845559 eBay teri781 Auction 42167679
12/27/2018 $100 6 262939989187 eBay vintagecardboard Buy It Now 21100313
12/25/2018 $180 7 382628690073 eBay gavin-617 Best Offer 41356454
12/23/2018 $44 5 153306137485 eBay umjjm Auction 23034056
12/18/2018 $3,000 8.5 231778184761 eBay hockeypuck28 Buy It Now 23732452
11/30/2018 $100 6 264007968131 eBay 4_sharp_corners Buy It Now 41601053
11/16/2018 $138 7 235 Mile High Card Company Extra Innings November 2018 Auction 42077257
11/16/2018 $53 6 236 Mile High Card Company Extra Innings November 2018 Auction 42077255
11/12/2018 $1,525 8.5 142999196340 eBay pwcc_auctions Auction 41464543
11/12/2018 $28 4 142999196335 eBay pwcc_auctions Auction 26647864
11/04/2018 $41 4 132808509764 eBay merlotj Buy It Now 41325068
10/29/2018 $126 7 382601133552 eBay probstein123 Auction 26287342
10/29/2018 $391 8 192695316346 eBay crabcake55 Auction 02064689
10/29/2018 $103 8 202475580946 eBay crabcake55 Auction 02064689
10/28/2018 $100 6.5 223200549469 eBay smrcollectibles Buy It Now 41225273
10/25/2018 $146 7 601 Sirius Sports Auctions Sirius Sports Cards Auction # 223 - Ends 10/25/18 Auction 41691383
09/16/2018 $126 7 202429036834 eBay fitzyssportscards Auction 14895173
09/13/2018 $497 8 401593544867 eBay pwcc_auctions Auction 04324704
09/13/2018 $391 7 142926458505 eBay pwcc_auctions Auction 28177271
09/13/2018 $63 6 352452352148 eBay pwcc_auctions Auction 41207553
09/09/2018 $536 8 382553861502 eBay gregmorriscards Auction 26029157
09/08/2018 $69 6 142911698818 eBay bbcexchange Buy It Now 27164938
09/08/2018 $115 8 (OC) 202422718953 eBay jimjeg Auction 09043416
09/06/2018 $168 7 382553801336 eBay probstein123 Auction 23295678
09/03/2018 $272 7.5 163088209632 eBay janie-carolyn Best Offer 41046197
08/30/2018 $426 8 401585945334 eBay pwcc_auctions Auction 12320482
08/30/2018 $162 7 352437197368 eBay pwcc_auctions Auction 41240175
08/30/2018 $1,974 8.5 28 Sirius Sports Auctions Sirius Sports Cards Auction # 219 - Ends 8/30/18 Auction 27629361
08/28/2018 $50 5 401578295044 eBay funtime44$ Best Offer 27063893
08/28/2018 $40 5 263894524601 eBay n8collects Buy It Now 25799830
08/28/2018 $73 6 263771922626 eBay 4_sharp_corners Buy It Now 40643091
08/27/2018 $154 7 382544569498 eBay probstein123 Auction 17938394
08/27/2018 $58 6 263898715073 eBay ndjevans92 Best Offer 26784507
08/26/2018 $38 5 153145123959 eBay anitasblair Auction 25414158
08/22/2018 $574 8 9158 RR Auction Sports Auction Auction 40645138
08/21/2018 $61 6 372404675955 eBay tripleplayvintagestore Auction 41107765
08/20/2018 $60 6 253817878358 eBay thestadiumbc Buy It Now 40698264
08/19/2018 $20 3 132744785206 eBay putgreeninmyjeans Auction 40933824
08/16/2018 $455 8 352424471099 eBay pwcc_auctions Auction 22985482
08/16/2018 $420 8 352424470817 eBay pwcc_auctions Auction 03331837
08/16/2018 $132 7 352424470815 eBay pwcc_auctions Auction 06276320
08/16/2018 $50 6 183370583426 eBay tirennel-0 Auction 40988837
08/14/2018 $431 8 292672100470 eBay sasha136 Auction 26029157
08/14/2018 $30 4 273404277771 eBay cschoch139 Best Offer 41434365
08/12/2018 $34 5 323383419111 eBay rilosept02 Auction 24021269
08/11/2018 $77 8 (OC) 132733609297 eBay tripleplayvintagestore Auction 04618908
08/11/2018 $200 6 223036904693 eBay mtw3223 Best Offer 15088114
08/10/2018 $131 7 253794643555 eBay dalet-68 Auction 04212572
08/08/2018 $46 5 113179991182 eBay wrl1988 Auction 26920637
08/06/2018 $441 8 142886852816 eBay caldango Auction 18293903
08/01/2018 $550 8 253783056017 eBay bfish0978 Best Offer 05024559
07/31/2018 $405 8 401570756221 eBay pwcc_auctions Auction 12358003
07/31/2018 $440 8 142877695883 eBay pwcc_auctions Auction 21719086
07/30/2018 $38 4 302816862358 eBay vanmansvintagecards Auction 28416412
07/29/2018 $420 8 292651502524 eBay sasha136 Auction 26029157
07/29/2018 $22 5 (MC) 253721473351 eBay psa10hunter Best Offer 41043601
07/27/2018 $170 7 323209069536 eBay kensden747 Buy It Now 17678840
07/27/2018 $100 6.5 163154663841 eBay fightinphils1980 Buy It Now 40826919
07/26/2018 $50 4 362374208718 eBay sewall Best Offer 27805107
07/24/2018 $105 6 323354754752 eBay njcardcollector Auction 40904275
07/22/2018 $37 5.5 292639197113 eBay gatel-jak Auction 25617733
07/22/2018 $165 7 372346532707 eBay caughtlooking2000 Buy It Now 19978823
07/19/2018 $178 7 805 Sirius Sports Auctions Sirius Sports Cards Auction # 216 - Ends 7/19/18 Auction 40929124
07/15/2018 $51 5 123236571749 eBay mfdoner Auction 27736462
07/12/2018 $428 8 382508908797 eBay probstein123 Auction 03404884
07/12/2018 $36 5 372362086599 eBay graderite Auction 40897028
07/12/2018 $552 8 352395382372 eBay pwcc_auctions Auction 01049576
07/12/2018 $410 8 142852137711 eBay pwcc_auctions Auction 01073319
07/12/2018 $134 7 401561814111 eBay pwcc_auctions Auction 21622823
07/12/2018 $175 7 202359455165 eBay ivettespinos_5 Best Offer 25153159
07/12/2018 $25 7 (OC) 173406042399 eBay rafourmen_0 Best Offer 06174897
07/11/2018 $440 8 183313199364 eBay gaspipe26 Best Offer 12284413
07/11/2018 $61 6.5 292631494567 eBay joed70us Auction 40826919
07/09/2018 $130 7 362370999702 eBay redpearson Auction 40866018
07/04/2018 $60 6 253519126530 eBay mikesmemorabilia63 Best Offer 28416444
07/04/2018 $90 6.5 362375964989 eBay zgcards Best Offer 28666263
07/03/2018 $40 5 401559722476 eBay its4salehere90 Best Offer 41101185
07/02/2018 $181 5.5 202348619077 eBay triplesssinc Auction 27962552
06/30/2018 $53 6 113096044092 eBay soonerfan810 Auction 15088114
06/29/2018 $67 6 113079936448 eBay i3putt Auction 40686775
06/29/2018 $480 8 372329627555 eBay rcmcollection Buy It Now 31348662
06/29/2018 $85 6 253705920190 eBay fieldofwheat281 Buy It Now 29095338
06/29/2018 $2,975 8.5 142599104857 eBay terranovaandco.com Buy It Now 24862973
06/28/2018 $1,411 8.5 352383504070 eBay pwcc_auctions Auction 23027601
06/28/2018 $428 8 401554357533 eBay pwcc_auctions Auction 12284413
06/28/2018 $432 8 352383503951 eBay pwcc_auctions Auction 40871919
06/26/2018 $42 5 312167129793 eBay jaysace Auction 40800280
06/17/2018 $71 6 362352507789 eBay presstheplaybutton Buy It Now 27709927
06/14/2018 $6,300 9 142821800152 eBay pwcc_auctions Auction 02014292
06/14/2018 $1,896 8.5 142821800140 eBay pwcc_auctions Auction 31849568
06/14/2018 $493 8 401547614937 eBay pwcc_auctions Auction 22985482
06/14/2018 $475 8 142821799915 eBay pwcc_auctions Auction 03331837
06/13/2018 $60 6.5 253647671841 eBay sacoriverauctionllc Auction 16443019
06/13/2018 $485 8 123177202350 eBay artist92 Auction 31420594
06/07/2018 $48 4 142790863655 eBay jdduck Buy It Now 29056000
06/06/2018 $150 7 132602987981 eBay springermountainsportscards Buy It Now 17682233
06/02/2018 $525 8 153045616828 eBay antlab76 Best Offer 18465732
05/30/2018 $485 8 232735617563 eBay stevetradingcompany Best Offer 31479631
05/28/2018 $160 7.5 253521051403 eBay sports-cards-forever Best Offer 17652828
05/24/2018 $500 8 142743700816 eBay gmaddux69 Buy It Now 23540544
05/23/2018 $50 6 153005364646 eBay thesportscollector1123 Best Offer 81416136
05/23/2018 $125 7 312132005505 eBay jkent7 Buy It Now 25776173
05/19/2018 $55 5 311890857591 eBay richsgoodsportsstuff Buy It Now 25887654
05/18/2018 $145 7 292463399097 eBay jl4jc2001 Best Offer 27689844
05/18/2018 $137 7 192534325218 eBay demis Best Offer 11303120
05/17/2018 $54 6 (MC) 282962037002 eBay rebel_cruge1977 Best Offer 15869363
05/15/2018 $440 8 401532994393 eBay pwcc_auctions Auction 18523806
04/30/2018 $540 8 401520651229 eBay cardpickers Best Offer 31420594
04/28/2018 $5,999 9 142767482327 eBay tovin311 Buy It Now 03003371
04/27/2018 $28 4 263636038910 eBay pqcards-collectables Buy It Now 26955085
04/27/2018 $55 6 202291725004 eBay linedrivehit Best Offer 30097553
04/27/2018 $43 5 173279159818 eBay cardtard2 Best Offer 31148868
04/23/2018 $120 7 142760283196 eBay vlsl05 Auction 17682233
04/16/2018 $766 8 401518579754 eBay pwcc_auctions Auction 27302441
04/16/2018 $175 7 112932346544 eBay jtur5101 Buy It Now 22010503
04/12/2018 $168 7 372269051777 eBay kazoo88 Auction 26001599
04/11/2018 $122 7 132568994810 eBay vntgbill176r Auction 25153159
04/10/2018 $30 4 311864144965 eBay fireball63 Best Offer 27023277
04/09/2018 $54 6 183159896747 eBay zorbaca Auction 16449118
04/09/2018 $80 6 401502587316 eBay jcm331 Buy It Now 28611305
04/09/2018 $424 8 112915516418 eBay joe_ske Auction 05024559
04/09/2018 $168 7 192495184692 eBay scotts_vintage_cards Buy It Now 14928259
04/08/2018 $40 5 332601431094 eBay b-e-collectibles Auction 28895104
04/05/2018 $455 8 372245566387 eBay thecardshap Auction 24233033
04/05/2018 $136 7 173243272207 eBay knowsmoore1070 Auction 22010503
04/05/2018 $160 7 282913215223 eBay wvufootballfan10 Buy It Now 27621044
04/03/2018 $124 Auth 253524367743 eBay cardboardgoldinvestments Auction 28525514
04/02/2018 $42 5 372256399625 eBay probstein123 Auction 28934618
03/31/2018 $29 4 202270740259 eBay bbra_us_1qfectf9y Auction 28889716
03/25/2018 $49 6 123028544319 eBay indians17 Auction 24169214
03/25/2018 $46 6 372249451896 eBay mborden575 Auction 23396536
03/25/2018 $59 8 (OC) 173226751988 eBay izzygold777 Auction 31486110
03/23/2018 $175 7 252069761056 eBay vintagecardboard Buy It Now 17367158
03/20/2018 $59 6 173227186594 eBay dadaworldservices Buy It Now 28661966
03/20/2018 $200 7 183088919995 eBay seablaster Buy It Now 26023194
03/20/2018 $411 8 123013291003 eBay mike1681msn Auction 12242093
03/19/2018 $54 5 183124160103 eBay zorbaca Auction 20299269
03/18/2018 $91 Auth 253484238790 eBay cardboardgoldinvestments Auction 28525515
03/18/2018 $31 4 302667522421 eBay richarhiggin-22 Auction 28651621
03/11/2018 $92 Auth 253468337109 eBay cardboardgoldinvestments Auction 28525513
03/10/2018 $119 Auth 372230590095 eBay millcreeksports Best Offer 28634355
03/09/2018 $50 6 263539370503 eBay diveboy Buy It Now 15088114
03/08/2018 $131 7 382396356385 eBay probstein123 Auction 26541441
03/04/2018 $185 7 253468447951 eBay arentsen Buy It Now 28607660
03/01/2018 $45 5 152834218192 eBay kkor2419 Best Offer 25694938
03/01/2018 $32 4 122992310628 eBay diamondcardboard Buy It Now 21840111
03/01/2018 $57 5 362042322413 eBay memoroboblia Buy It Now 26503841
02/28/2018 $45 5 132513674017 eBay groovelishis Auction 27454578
02/26/2018 $133 Auth 362246297222 eBay probstein123 Auction 28794494
02/25/2018 $164 7 173167094724 eBay oblivious007 Auction 23578348
02/25/2018 $7,800 9 80222 Heritage Auctions 2018 February 24 - 25 Platinum Night Sports Auction 20749975
02/22/2018 $575 8 263493688012 eBay fieldofwheat281 Buy It Now 28448411
02/21/2018 $127 7 253427936042 eBay baldy2506 Auction 28158164
02/20/2018 $550 8 282851251599 eBay authenticmemorabilia Buy It Now 08144606
02/19/2018 $43 5.5 162899963712 eBay florida_bound Auction 23470584
02/18/2018 $142 7 222830724871 eBay fitzyssportscards Auction 14895173
02/11/2018 $76 6 352270598088 eBay pwcc_auctions Auction 27046311
02/11/2018 $50 5 132378719021 eBay schoolboycollectibles Buy It Now 27904739
02/10/2018 $57 5 273054620266 eBay mzvhxj Auction 28100826
02/09/2018 $70 6 222817329515 eBay icaceohart Auction 28371200
02/08/2018 $118 7 202213707855 eBay unocooldude Auction 27594484
02/07/2018 $29 3 263464455830 eBay simmonsllc25 Auction 28342261
02/05/2018 $135 7 382360930032 eBay probstein123 Auction 28158164
02/05/2018 $20 4 312056088265 eBay gunther713 Auction 27878240
02/04/2018 $119 7 232645958506 eBay bucks1996 Auction 26123320
01/30/2018 $103 6 222808066708 eBay nowbatting19 Auction 25496740
01/29/2018 $120 7 222796438213 eBay jerster Best Offer 27687394
01/28/2018 $121 7 263451208031 eBay patthepainter2011 Auction 09093857
01/26/2018 $45 4 351832421639 eBay wvshoebox Buy It Now 25681571
01/24/2018 $32 4 112773579127 eBay gr7189 Best Offer 28416412
01/23/2018 $31 4 382348694825 eBay probstein123 Auction 28416412
01/22/2018 $49 6 302603758061 eBay burker72 Auction 22329126
01/21/2018 $24 3 112744968490 eBay evansarchive Auction 27501053
01/19/2018 $70 6 132378720268 eBay schoolboycollectibles Buy It Now 27904738
01/15/2018 $140 7 132465448273 eBay aggietrader Auction 18374206
01/14/2018 $26 2 311810126587 eBay richsgoodsportsstuff Buy It Now 25514125
01/07/2018 $424 8 182992241325 eBay jrowejr25 Auction 05024613
01/07/2018 $415 8 362198382643 eBay probstein123 Auction 14854131
01/01/2018 $109 7 691 Sirius Sports Auctions Sirius Sports Cards Auction # 46 Auction 19382222
01/01/2018 $161 7 644 Sirius Sports Auctions Sirius Sports Cards Auction # 215 - Ends 7/5/18 Auction 40785799
12/31/2017 $49 6 132444921598 eBay mainer377 Auction 18691744
12/30/2017 $500 8 332482683113 eBay dlkkelsey09 Best Offer 28137144
12/29/2017 $49 6 232602880240 eBay bob8359 Auction 40020276
12/28/2017 $22 2 173045424728 eBay knoodles Auction 04232766
12/26/2017 $200 7 112288260659 eBay mvpsportscardssocal Buy It Now 22585215
12/23/2017 $49 6 253319756850 eBay robinrettig1966 Auction 21201797
12/21/2017 $37 4 172993307596 eBay vbcardsandcollectibles Buy It Now 28195599
12/21/2017 $455 8 362187225114 eBay probstein123 Auction 06587931
12/20/2017 $36 5 382307415890 eBay gregmorriscards Auction 31892490
12/20/2017 $49 5 253155005023 eBay quality*cards Buy It Now 27600614
12/18/2017 $65 6 122847853159 eBay [email protected] Best Offer 27818309
12/18/2017 $51 6 132433354411 eBay vlsl05 Auction 27257240
12/17/2017 $26 5 202148887220 eBay roswell7447 Best Offer 26383566
12/12/2017 $436 8 142611674479 eBay pwcc_auctions Auction 19948314
12/12/2017 $200 7 292217618209 eBay ct_drakeula Buy It Now 05154282
12/06/2017 $55 6 382297900395 eBay probstein123 Auction 26471816
12/05/2017 $48 6 382297206779 eBay probstein123 Auction 24169214
12/05/2017 $116 7 382297211053 eBay probstein123 Auction 27441921
12/05/2017 $448 8 362171563400 eBay probstein123 Auction 28163398
12/05/2017 $150 7 152812377770 eBay mjfuzzi8cwr Buy It Now 25754257
12/03/2017 $51 6 122828890440 eBay indianafarm Auction 28371200
12/01/2017 $349 8 318 Goodwin and Co. Auctions Masterpieces and Uncommon Commons LXXIII Auction 05024613
11/30/2017 $50 5 142525944927 eBay sewall Best Offer 27974495
11/30/2017 $134 7 401445685054 eBay pwcc_auctions Auction 22249157
11/26/2017 $15 4 182916978073 eBay deadbaseballplayers Auction 27043465
11/26/2017 $130 7 272938765317 eBay investinbaseball Auction 27827904
11/18/2017 $55 6 152781719831 eBay kkor2419 Best Offer 25733066
11/18/2017 $349 8 83005 Heritage Auctions Heritage November 16-18, 2017 Auction 31506241
11/17/2017 $25 4 332445439754 eBay r-and-k-auctions Auction 27007337
11/16/2017 $404 8 142568985960 eBay pwcc_auctions Auction 03404884
11/16/2017 $48 6 352203482445 eBay pwcc_auctions Auction 27257240
11/16/2017 $24 3 401437358679 eBay pwcc_auctions Auction 25173302
11/14/2017 $35 4 182878175504 eBay marayasportscards Buy It Now 27848055
11/14/2017 $75 6 382278422288 eBay oakesy25 Buy It Now 28283590
11/10/2017 $30 Auth 382276107353 eBay amerlegends Buy It Now 28100612
11/09/2017 $73 6.5 950 Sirius Sports Auctions Sirius Sports Cards Auction # 198 - Ends 11/9/17 Auction 27848785
11/06/2017 $37 5 362144794597 eBay probstein123 Auction 27827906
11/05/2017 $55 6 112622060447 eBay splaney1 Auction 15088114
11/04/2017 $44 5 272905824575 eBay mvb1961 Auction 22271228
11/01/2017 $124 7 362140799225 eBay probstein123 Auction 90634413
11/01/2017 $170 7 162716106330 eBay nicmoskow Best Offer 01746934
11/01/2017 $41 4.5 372116128555 eBay probstein123 Auction 27792993
10/31/2017 $146 7 401427872495 eBay pwcc_auctions Auction 23540543
10/22/2017 $30 5 352184692254 eBay cavaliercards Auction 27286294
10/22/2017 $42 5 322814222317 eBay ceegeewow Best Offer 27781092
10/22/2017 $114 7 44091 Heritage Auctions Sunday Internet Sports Collectibles Auction Ended Oct 22nd Auction 31516803
10/16/2017 $34 6 (OC) 362127034460 eBay classicsportscards430 Auction 12478995
10/16/2017 $8,950 9 192335493555 eBay sc_sports_investments Buy It Now 14853772
10/15/2017 $292 7.5 142529254693 eBay pwcc_auctions Auction 24574152
10/15/2017 $207 7 352179407533 eBay pwcc_auctions Auction 22249157
10/15/2017 $130 7 282677419656 eBay pdubber1819 Auction 02289864
10/14/2017 $35 4 372100750366 eBay caughtlooking2000 Buy It Now 25839362
10/13/2017 $135 7 272867580984 eBay 87marvelgolfhawaii Best Offer 27999796
10/10/2017 $140 7 311971385129 eBay gregmorriscards Auction 24108201
10/10/2017 $115 7 253189779899 eBay roundandaboutauctions Auction 90634413
10/10/2017 $632 8 362035587071 eBay 4_sharp_corners Buy It Now 02311543
10/06/2017 $58 6 192317507393 eBay marcybug2 Auction 40267731
10/06/2017 $50 5.5 172879949585 eBay teejay3490 Best Offer 27145474
10/03/2017 $111 7 142523710298 eBay bahaburrito Auction 90634413
10/02/2017 $150 7 202062813075 eBay katsnbobs Auction 04100820
09/28/2017 $37 4.5 372079713027 eBay probstein123 Auction 27792993
09/27/2017 $49 6 222651950805 eBay berks_sports_cards Auction 27489801
09/26/2017 $32 4 172868525187 eBay vine_jay Auction 27858658
09/25/2017 $144 7 222654957457 eBay anya57-2008 Buy It Now 02114636
09/17/2017 $2,159 8.5 352160972700 eBay pwcc_auctions Auction 27619898
09/17/2017 $365 8 401400056285 eBay pwcc_auctions Auction 01389274
09/17/2017 $65 8 (OC) 352160972698 eBay pwcc_auctions Auction 26095548
09/17/2017 $187 7 401400056282 eBay pwcc_auctions Auction 27621044
09/17/2017 $34 4 142500560330 eBay pwcc_auctions Auction 22235831
09/16/2017 $35 5 122709452493 eBay bbcardpax Buy It Now 27779191
09/14/2017 $450 8 152700467499 eBay hogsdodgersandspurs Buy It Now 30274069
09/12/2017 $169 7 391886384407 eBay vintagesc Best Offer 27627454
09/12/2017 $89 6 352142160398 eBay tbh39 Best Offer 09171847
09/10/2017 $49 5 362091320647 eBay tangointhenight15 Auction 27699897
09/09/2017 $34 5 112549991569 eBay gmb.sports20166 Auction 27201390
09/09/2017 $74 6 202035492147 eBay smoo7th Best Offer 27687393
09/05/2017 $64 6 192289489202 eBay marcybug2 Auction 40267731
09/03/2017 $51 6 132311025647 eBay vlsl05 Auction 26935500
09/03/2017 $41 5 272822932173 eBay kemdawg Auction 27286294
09/03/2017 $192 7 41042 Heritage Auctions Sunday Internet Sports Collectibles Auction Ended Sep 3rd Auction 90634413
08/31/2017 $30 4.5 372055184091 eBay probstein123 Auction 27792993
08/30/2017 $145 7 263176888901 eBay diveboy Best Offer 03005638
08/24/2017 $37 5 372048405318 eBay probstein123 Auction 23610293
08/22/2017 $143 7 382196018640 eBay probstein123 Auction 27092159
08/20/2017 $455 8 352139276687 eBay 1cardwizard Auction 04062068
08/19/2017 $55 6 282613343424 eBay chrisimpso_2 Best Offer 23043239
08/15/2017 $56 6 382187253564 eBay gregmorriscards Auction 25629414
08/15/2017 $131 7 401379155346 eBay pwcc_auctions Auction 21264562
08/14/2017 $125 7 332331852352 eBay sportscardsofhouston Best Offer 11190087
08/14/2017 $450 8 253078850796 eBay gemint Auction 26997401
08/13/2017 $440 8 292203674516 eBay investinbaseball Auction 02002070
08/10/2017 $53 6 362060122560 eBay probstein123 Auction 10533649
08/10/2017 $151 7 292203542750 eBay baseballtopps Best Offer 06595955
08/10/2017 $126 7 172805714708 eBay luke137-auctions Auction 15326528
08/09/2017 $49 6 322625109175 eBay lnghornbaseball Auction 26935500
08/07/2017 $436 8 382181951094 eBay probstein123 Auction 27625339
08/06/2017 $440 8 162611142093 eBay itsgottobe3 Auction 24908851
08/06/2017 $50 5 352050137176 eBay certomatic Buy It Now 22972984
08/05/2017 $170 7 391824811727 eBay jedi-spirit Buy It Now 05086689
08/05/2017 $53 6 332324748438 eBay waterfowl_underground_shop Auction 14084782
08/05/2017 $30 4 132280379085 eBay pyromom Buy It Now 23497267
08/05/2017 $61 6 263122868415 eBay diveboy Buy It Now 27418387
08/04/2017 $128 7 263122870419 eBay diveboy Buy It Now 23516686
07/30/2017 $537 8 382171430842 eBay probstein123 Auction 27542822
07/30/2017 $134 7 332315804711 eBay zzcar Auction 06268146
07/30/2017 $73 6 132278060485 eBay rockstarhollywood Best Offer 27183137
07/28/2017 $130 7 322606344749 eBay deelystanbu92 Auction 30410931
07/28/2017 $107 7 322606117432 eBay deelystanbu92 Auction 04578971
07/27/2017 $28 4 162598519935 eBay sprtscardsrus Best Offer 11890284
07/27/2017 $37 4 132269717219 eBay vlsl05 Auction 22459037
07/23/2017 $137 7 162595498751 eBay basesny Auction 27565832
07/20/2017 $42 5 142381839876 eBay sewall Best Offer 27283285
07/20/2017 $30 4 122570410052 eBay rfealy Buy It Now 26270744
07/20/2017 $428 8 26 Sirius Sports Auctions Sirius Sports Cards Auction # 190 - Ends 7/20/17 Auction 27413832
07/18/2017 $128 7 372010046405 eBay probstein123 Auction 14394491
07/18/2017 $45 5 263088791650 eBay diveboy Buy It Now 27418388
07/17/2017 $452 8 372008975011 eBay probstein123 Auction 16413609
07/17/2017 $129 7 152621940385 eBay kickerchick4u Auction 31337189
07/16/2017 $70 6 332255087964 eBay dirt1025 Buy It Now 27274294
07/13/2017 $406 8 172767902549 eBay radar22 Auction 08057101
07/12/2017 $38 5 382152401521 eBay probstein123 Auction 27257237
07/12/2017 $48 5 122480158378 eBay earhart47 Buy It Now 27265882
07/12/2017 $45 5 382152817682 eBay scarceinserts Buy It Now 27016755
07/11/2017 $35 5 182646327275 eBay marlins555 Buy It Now 26503841
07/11/2017 $26 4 263073852905 eBay sports-cards-n-stuff Best Offer 25556361
07/11/2017 $7,500 9 142432419241 eBay pwcc_auctions Auction 06002173
07/11/2017 $205 7.5 352103010036 eBay pwcc_auctions Auction 19866845
07/10/2017 $143 7 382149802934 eBay probstein123 Auction 27257243
07/10/2017 $49 6 382149803427 eBay probstein123 Auction 27257240
07/10/2017 $99 6.5 282499811299 eBay acme.cards Buy It Now 17151018
07/08/2017 $402 8 152609643678 eBay force43001 Auction 07059612
07/03/2017 $35 5 382138075406 eBay probstein123 Auction 24380392
07/01/2017 $60 5 262125269072 eBay kizcards Buy It Now 18994579
07/01/2017 $150 7 172745116002 eBay marku5020 Auction 14394491
06/29/2017 $25 4 253006037697 eBay 7sundevils9 Auction 25839359
06/26/2017 $90 6 132220714915 eBay pengvin67 Best Offer 25562547
06/26/2017 $22 4 232379353065 eBay kuykeus2013 Auction 22459037
06/25/2017 $125 6.5 232370020459 eBay smas99 Best Offer 27338582
06/25/2017 $128 7 362013195207 eBay teri781 Auction 27489607
06/19/2017 $41 4 352068757353 eBay lochnessaypp Buy It Now 40268762
06/18/2017 $35 5 362005769091 eBay tangointhenight15 Auction 27359629
06/18/2017 $26 5 162549574733 eBay card.depot Auction 27222914
06/17/2017 $165 7 282476820928 eBay acme.cards Buy It Now 19294772
06/16/2017 $573 8 1280 Mile High Card Company June 2017 Auction 08154752
06/11/2017 $7,150 9 142401636288 eBay pwcc_auctions Auction 21473504
06/11/2017 $431 8 352075770967 eBay pwcc_auctions Auction 25565810
06/11/2017 $36 5 142401636285 eBay pwcc_auctions Auction 26718630
06/07/2017 $55 5 311814153805 eBay richsgoodsportsstuff Buy It Now 20975232
06/06/2017 $48 6 142403568098 eBay jessgrov_7 Auction 20902194
06/04/2017 $175 7 332250121771 eBay jlmii Best Offer 02447367
06/04/2017 $40 6 382100370219 eBay probstein123 Auction 10533649
06/04/2017 $36 5 322526835564 eBay taycard Auction 26929613
06/04/2017 $75 6 192199608993 eBay johzitzelberge_0 Auction 27228370
06/03/2017 $130 7 172696338913 eBay 6thcard Auction 11412985
05/30/2017 $50 5 401337750873 eBay caughtlooking2000 Buy It Now 24846152
05/29/2017 $635 8 361984550116 eBay probstein123 Auction 27046224
05/29/2017 $15 3.5 152557575362 eBay hi5-4you Auction 26947740
05/27/2017 $99 6.5 132170815979 eBay stevemaj09 Buy It Now 26830125
05/26/2017 $45 4 262972095663 eBay toptiercardsncollectibles Best Offer 25242035
05/25/2017 $138 7 382084433596 eBay gregmorriscards Auction 11185171
05/25/2017 $37 5 371954902056 eBay probstein123 Auction 25705099
05/22/2017 $201 7.5 382083649564 eBay probstein123 Auction 19866845
05/22/2017 $150 7 152552389654 eBay jehoppy Buy It Now 14600406
05/22/2017 $40 5.5 282475317525 eBay acme.cards Auction 25532048
05/22/2017 $38 5 282475317475 eBay acme.cards Auction 26933106
05/22/2017 $79 8 (OC) 262987433496 eBay 76collector Auction 27219650
05/21/2017 $42 5 332221166039 eBay just_collect Auction 27145847
05/21/2017 $436 8 371951843522 eBay shoehorn72 Auction 19948314
05/20/2017 $61 6 222510461336 eBay baseballjre Auction 14084782
05/18/2017 $51 6 162520504061 eBay scootp13 Best Offer 27228370
05/17/2017 $39 4 361976261920 eBay probstein123 Auction 26923887
05/17/2017 $65 6 222513869548 eBay halva2rnv Best Offer 25026676
05/15/2017 $28 5 382075830420 eBay probstein123 Auction 27010603
05/14/2017 $203 7 182574510570 eBay attire-desire Buy It Now 25944107
05/14/2017 $109 6.5 332152942660 eBay gb040348 Buy It Now 14539355
05/11/2017 $145 7 382071538663 eBay probstein123 Auction 27010600
05/11/2017 $26 4 371939814694 eBay probstein123 Auction 27010604
05/11/2017 $140 7 361971153028 eBay probstein123 Auction 27010602
05/11/2017 $455 8 401318878003 eBay pwcc_auctions Auction 26026262
05/11/2017 $39 5 401318877895 eBay pwcc_auctions Auction 20299269
05/11/2017 $15 5 (MC) 142369193649 eBay pwcc_auctions Auction 26604319
05/11/2017 $17 4 142369193648 eBay pwcc_auctions Auction 26640028
05/10/2017 $37 5 142371387846 eBay librarian701 Auction 24380392
05/06/2017 $9,650 9 1026 Memory Lane, Inc. Spring 2017 Holy Grail Rarities Auction Auction 90129833
05/04/2017 $43 6 173 Mile High Card Company Extra Innings April/May 2017 Auction 11077153
05/01/2017 $138 7 361962149123 eBay probstein123 Auction 26922876
04/30/2017 $25 4 352038213585 eBay just_collect Auction 27063892
04/30/2017 $90 6.5 361961527266 eBay krukcards Auction 17151018
04/27/2017 $27 4 192164255647 eBay rotisserieduck Auction 26730697
04/25/2017 $98 8 (OC) 371923856277 eBay aaacoll Auction 08027316
04/23/2017 $64 6 371922241959 eBay probstein123 Auction 27014198
04/23/2017 $55 8 (OC) 401309224158 eBay toughie12 Auction 27026667
04/23/2017 $41 5 352032462087 eBay just_collect Auction 26977778
04/21/2017 $30 4 182533226430 eBay marlins555 Auction 25639727
04/20/2017 $127 7 371916848339 eBay probstein123 Auction 17819177
04/18/2017 $180 7 401304856420 eBay pwcc_auctions Auction 23701383
04/18/2017 $46 Auth 142340880730 eBay pwcc_auctions Auction 26518268
04/17/2017 $81 6.5 401304807003 eBay allstar-cards Auction 19978655
04/16/2017 $23 4 332178751495 eBay ccsinclair6pu5 Auction 26955085
04/09/2017 $20 4 172607419621 eBay yarbroughunlimited Auction 31094536
04/08/2017 $133 7 172609292773 eBay yarbroughunlimited Auction 31333554
04/05/2017 $85 6 322467045579 eBay dunavmitch Auction 23886313
04/02/2017 $166 7 332165794401 eBay muckamire Auction 26922876
03/30/2017 $416 8 112350123938 eBay showtimevideodvds Auction 19345514
03/26/2017 $436 8 182496039069 eBay jrowejr25 Auction 25565810
03/26/2017 $121 7 352006787770 eBay bakendave Auction 26932829
03/26/2017 $61 6 252813091517 eBay stodyllc Auction 21100313
03/23/2017 $511 8 122407321287 eBay rynocc23 Auction 26140467
03/20/2017 $60 6 322451517722 eBay dunavmitch Auction 23886313
03/15/2017 $136 7 401286167283 eBay pwcc_auctions Auction 23609503
03/14/2017 $22 4 (MC) 302242387222 eBay gennaro1980 Auction 26854130
03/13/2017 $56 6 182479890331 eBay zorbaca Auction 11753491
03/12/2017 $465 8 381988458665 eBay probstein123 Auction 26809396
03/12/2017 $64 6 361917141346 eBay allstar-cards Auction 24182941
03/05/2017 $81 6 201837407016 eBay dslsports Auction 26884218
03/02/2017 $81 8 (MC) 332136752115 eBay sierra_sports Auction 24612876
03/01/2017 $69 6 292033360999 eBay baseballjre Auction 14084782
03/01/2017 $62 6 272565498086 eBay twins98blue Auction 11590594
02/28/2017 $600 8 401278265486 eBay pwcc_auctions Auction 14258464
02/27/2017 $59 6 122368331727 eBay jbittancourt Auction 21649492
02/26/2017 $151 7 262860417906 eBay agilleo24 Auction 22183912
02/22/2017 $73 6 332124400806 eBay bakendave Auction 26471816
02/21/2017 $17 3.5 132096927280 eBay rockledgesportscards Auction 25147276
02/20/2017 $129 6 381964484747 eBay probstein123 Auction 26631725
02/15/2017 $565 8 361900711321 eBay probstein123 Auction 03005633
02/15/2017 $145 7 132087546224 eBay gregmorriscards Auction 11185171
02/14/2017 $466 8 142268124750 eBay pwcc_auctions Auction 19345514
02/14/2017 $280 7.5 351974168240 eBay pwcc_auctions Auction 26219515
02/14/2017 $133 7 351974168237 eBay pwcc_auctions Auction 03628600
02/07/2017 $130 7 381946009997 eBay probstein123 Auction 26684042
02/04/2017 $45 5 401266886577 eBay vintagecards71 Auction 26085939
01/31/2017 $62 6 361888612559 eBay allstar-cards Auction 23886310
01/30/2017 $407 8 252740009303 eBay tierralawn Auction 26314785
01/29/2017 $74 6 262819363566 eBay lesmea-0 Auction 03726798
01/28/2017 $47 4 222385338465 eBay katiejackson3.2012 Auction 25153072
01/25/2017 $72 6 142246763506 eBay ussiwojima Auction 25629243
01/17/2017 $135 7 371837887902 eBay tripleplayvintagestore Auction 11185171
01/11/2017 $465 8 381911236659 eBay probstein123 Auction 01324434
01/03/2017 $29 4 282306622867 eBay vanderwt Auction 26333841
12/25/2016 $96 6.5 272490713258 eBay katmandew Auction 21727229
12/25/2016 $51 5 351938307720 eBay just_collect Auction 25923828
12/21/2016 $154 7 142208862030 eBay pwcc_auctions Auction 25824717
12/20/2016 $117 7 381883678609 eBay probstein123 Auction 21402717
12/18/2016 $528 8 401241282205 eBay pwcc_auctions Auction 15569898
12/15/2016 $398 8 371809429410 eBay probstein123 Auction 01324434
12/14/2016 $124 7 332056649672 eBay doubledekehockey Auction 26385226
12/12/2016 $411 8 361846492776 eBay probstein123 Auction 26314785
12/04/2016 $133 7 322339309157 eBay smrcollectibles Auction 01194258
11/28/2016 $116 7 371795286685 eBay probstein123 Auction 23143961
11/27/2016 $34 5 322337345532 eBay robhhi31 Auction 25414158
11/25/2016 $272 7.5 192032739980 eBay 617sports Auction 26219515
11/21/2016 $40 5 371786677192 eBay probstein123 Auction 24231493
11/21/2016 $121 7 361826198368 eBay probstein123 Auction 21402717
11/20/2016 $25 4 172408277990 eBay linen*rose Auction 26481999
11/19/2016 $7,170 9 51363 Heritage Auctions 2016 November 17 - 19 Sports Collectibles Catalo... Nov 19, 2016 Auction 06002173
11/18/2016 $141 7 152314954929 eBay usjame-nctpap Auction 22183912
11/17/2016 $130 7 332025845811 eBay uiwsupply Auction 20031859
11/15/2016 $145 7 232137781366 eBay joecop2003 Auction 22761850
11/13/2016 $2,024 8.5 401219547994 eBay pwcc_auctions Auction 31136593
11/13/2016 $120 7 401219547989 eBay pwcc_auctions Auction 26287342
11/13/2016 $23 4.5 232135751687 eBay lfscards Auction 21272475
11/11/2016 $48 5 131990360566 eBay hanna-nelson Auction 26091473
11/10/2016 $114 7 311733987142 eBay investinbaseball Auction 23143961
11/03/2016 $457 8 351887490729 eBay pwcc_auctions Auction 90533777
11/03/2016 $65 6 112186113791 eBay showtimevideodvds Auction 25772394
11/02/2016 $412 8 371773570142 eBay probstein123 Auction 90526765
11/02/2016 $67 6 311729996334 eBay bergiesports Auction 26364953
10/30/2016 $110 7 291916297639 eBay airportfiredawg Auction 40030124
10/27/2016 $126 7 302113221372 eBay nowbatting19 Auction 26089781
10/26/2016 $22 4 351884567408 eBay with-a-twist Auction 26286012
10/26/2016 $171 7 361778923294 eBay probstein123 Auction 26127370
10/25/2016 $426 8 381814182590 eBay probstein123 Auction 50073659
10/23/2016 $390 8 381813579001 eBay gregmorriscards Auction 01324434
10/20/2016 $570 8 381813422844 eBay probstein123 Auction 26026261
10/20/2016 $27 5 131969892967 eBay vlsl05 Auction 25836471
10/17/2016 $405 8 401202572785 eBay pwcc_auctions Auction 03005633
10/17/2016 $400 8 351869506307 eBay pwcc_auctions Auction 21473258
10/17/2016 $124 7 401202572777 eBay pwcc_auctions Auction 22914739
10/16/2016 $471 8 222278888574 eBay bonzaicollections Auction 01324433
10/11/2016 $482 8 291899275664 eBay sasha136 Auction 05071138
10/06/2016 $38 5 371747124795 eBay probstein123 Auction 25639741
10/05/2016 $162 7 381787483824 eBay gregmorriscards Auction 26174755
10/04/2016 $660 8 381784696740 eBay probstein123 Auction 26026262
10/04/2016 $666 8 322277531496 eBay cliffylou69 Auction 26026260
09/30/2016 $40 5 331980425272 eBay gr8tdad2pbc Auction 26006734
09/30/2016 $32 5 272388052463 eBay estate-sale-warehouse Auction 26100121
09/29/2016 $123 7 371744037112 eBay probstein123 Auction 90555235
09/28/2016 $135 7 282196804715 eBay the_card_collector10 Auction 30410931
09/25/2016 $62 6 191973142075 eBay grays Auction 25973632
09/24/2016 $60 6 162203228452 eBay fightinphils1980 Auction 22468405
09/24/2016 $383 8 172345724543 eBay breezycollectibles Auction 50073659
09/21/2016 $123 7 201669100876 eBay baseballjoe Auction 23506465
09/21/2016 $60 6 162202922083 eBay ranger191 Auction 24351793
09/19/2016 $121 7 371731889125 eBay probstein123 Auction 15326528
09/16/2016 $134 7 311692586864 eBay gregmorriscards Auction 30320115
09/14/2016 $1,311 8 142107806089 eBay pwcc_auctions Auction 15569898
09/14/2016 $209 7 401182618466 eBay pwcc_auctions Auction 25824717
09/12/2016 $511 8 302060295721 eBay immaries Auction 06023873
08/18/2016 $133 7 726 Sirius Sports Auctions Sirius Sports Cards Auction # 166 - Ends 8/18/16 Auction 26023194
08/14/2016 $535 8 156 Goodwin and Co. Auctions Masterpieces and Uncommon Commons LXVII Auction 08065012
07/07/2016 $428 8 19 Sirius Sports Auctions Sirius Sports Cards Auction # 163 - Ends 7/7/16 Auction 02064689
05/14/2016 $6,573 9 81091 Heritage Auctions 2016 May 12 - 14 Sports Collectibles Catalog Au... May 14, 2016 Auction 01077546
04/08/2016 $5,520 9 29 Greg Bussineau Auctions Spring 2016 Vintage Trading Cards Auction Auction 02016321
01/07/2016 $66 6 491 Sirius Sports Auctions Sirius Sports Cards Auction # 150 - Ends 1/7/2016 Auction 17855070
12/04/2015 $390 8 710 Greg Bussineau Auctions Fall 2015 Vintage Trading Cards and Memorabilia Auction Auction 24373575
11/29/2015 $102 7 45016 Heritage Auctions Sunday Internet Sports Collectibles Auction Nov 29, 2015 Auction 05208061
11/07/2015 $10,158 9 11996 Heritage Auctions 2015 November 5 - 7 Sports Collectibles Catalog ... Nov 7, 2015 Auction 90129833
10/13/2015 $7,375 9 769 Mile High Card Company October 2015 Auction Auction 04014257
09/03/2015 $54 6 425 Sirius Sports Auctions Sirius Sports Cards Auction # 141 - Ends 9/3/15 Auction 24548234
08/22/2015 $10,158 9 82439 Heritage Auctions 2015 August 20 - 22 The 1970s Topps PSA Set Reg... Aug 22, 2015 Auction 15187860
08/15/2015 $423 8 1332 Memory Lane, Inc. Summer Break 2015 Auction Auction 23540545
08/06/2015 $54 6 585 Sirius Sports Auctions Sirius Sports Cards Auction # 139 - Ends 8/6/15 Auction 24549186
07/23/2015 $352 8 7 Sirius Sports Auctions Sirius Sports Cards Auction # 138 - Ends 7/23/15 Auction 24373575
06/11/2015 $90 7 332 Sirius Sports Auctions Sirius Sports Cards Auction # 135 - Ends 6/11/15 Auction 24392217
05/10/2015 $385 8 703 Memory Lane, Inc. Spring Break 2015 Auction Auction 23540544
02/19/2015 $120 7 887 Sirius Sports Auctions Sirius Sports Cards Auction # 127 - Ends 2/19 Auction 23999481
01/11/2015 $681 8 617 Memory Lane, Inc. Past & Present Winter Auction Auction 03000900
01/11/2015 $145 7 618 Memory Lane, Inc. Past & Present Winter Auction Auction 03000899
12/11/2014 $32 5 1241 Sirius Sports Auctions Sirius Sports Cards Auction # 122 - Ends 12/11 Auction 23533276
10/02/2014 $32 5 650 Sirius Sports Auctions Sirius Sports Cards Auction # 117 - Ends 10/2 Auction 23385993
03/14/2014 $60 6.5 608 Greg Bussineau Auctions Spring 2014 Vintage Trading Cards and Memorabilia Auction Auction 22311013
10/06/2013 $91 7 42018 Heritage Auctions Sunday Internet Sports Collectibles Auction Oct 6, 2013 Auction 14452075
04/04/2013 $330 8 485 Greg Bussineau Auctions Spring 2013 Vintage Trading Cards and Memorabilia Auction Auction 07168923
12/16/2012 $338 8 549 Memory Lane, Inc. The Find Winter 2012 Auction 14258464
12/07/2012 $300 8 781 Greg Bussineau Auctions Fall 2012 Vintage Trading Cards and Memorabilia Auction Auction 07168923
08/19/2012 $311 8 40007 Heritage Auctions Sunday Internet Sports Collectibles Auction Aug 19, 2012 Auction 07009040
07/12/2012 $328 8 173 SCP Auctions Monthly Auction #5 Auction 12096543
07/01/2012 $114 7 43004 Heritage Auctions Sunday Internet Sports Collectibles Auction Jul 1, 2012 Auction 06149828
04/20/2012 $39 5 547 Sirius Sports Auctions Sirius Sports Cards Auction # 53 Auction 19646033
08/21/2011 $2,592 9 208 Memory Lane, Inc. Sizziling Summer 2011 Auction 15472924
05/06/2011 $2,301 9 406 Memory Lane, Inc. Spring Fever Classic 2011 Auction 02071515
12/12/2010 $746 8.5 492 Memory Lane, Inc. Wintertime Classics Auction Auction 14923855
06/10/2010 $129 9 (OC) 675 Goodwin and Co. Auctions Masterpieces and Uncommon Commons XXVII Auction 16302385
06/10/2010 $504 8 1159 Mile High Card Company June 2010 Auction Auction 14745943
04/18/2010 $2,768 9 627 Memory Lane, Inc. Springtime Classic Auction Auction 02071515
10/07/2009 $282 8 1428 Mile High Card Company October 2009 Auction Auction 11232631
10/07/2009 $88 7 1441 Mile High Card Company October 2009 Auction Auction 14458140
05/09/2009 $2,901 9 855 Goodwin and Co. Auctions Masterpieces and Uncommon Commons XXI Auction 14853772
04/05/2009 $3,574 9 603 Memory Lane, Inc. Historical Classic Rarities Auction Auction 06002173
03/29/2009 $48 6 45026 Heritage Auctions Sunday Internet Sports Auction Mar 29, 2009 Auction 14159352
03/26/2009 $679 8.5 1069 Mile High Card Company March 2009 Auction Auction 14923855
03/26/2009 $288 8 1070 Mile High Card Company March 2009 Auction Auction 11580065
03/15/2009 $57 6 43012 Heritage Auctions Sunday Internet Sports Auction Mar 15, 2009 Auction 14159350
03/01/2009 $90 7 41054 Heritage Auctions Sunday Internet Sports Auction Mar 1, 2009 Auction 14159351
10/01/2008 $291 8 951 Mile High Card Company August 2008 Auction Auction 90455718
02/14/2008 $6,846 9 805 Mile High Card Company Winter 2008 Auction Auction 06144078
10/07/2007 $239 8 10028 Heritage Auctions Sunday Internet Sports Auction Oct 7, 2007 Auction 02047125
Sponsored Ads